Year,Month,Day,Hour,Minute,Value (Times are PST for temperature in C)
2014,07,17,00,00,20.80
2014,07,17,00,01,20.80
2014,07,17,00,02,20.80
2014,07,17,00,03,20.90
2014,07,17,00,04,20.90
2014,07,17,00,05,20.90
2014,07,17,00,06,20.80
2014,07,17,00,07,20.80
2014,07,17,00,08,20.80
2014,07,17,00,09,20.80
2014,07,17,00,10,20.80
2014,07,17,00,11,20.80
2014,07,17,00,12,20.80
2014,07,17,00,13,20.80
2014,07,17,00,14,20.70
2014,07,17,00,15,20.70
2014,07,17,00,16,20.70
2014,07,17,00,17,20.70
2014,07,17,00,18,20.70
2014,07,17,00,19,20.60
2014,07,17,00,20,20.60
2014,07,17,00,21,20.60
2014,07,17,00,22,20.60
2014,07,17,00,23,20.50
2014,07,17,00,24,20.50
2014,07,17,00,25,20.50
2014,07,17,00,26,20.40
2014,07,17,00,27,20.40
2014,07,17,00,28,20.40
2014,07,17,00,29,20.40
2014,07,17,00,30,20.40
2014,07,17,00,31,20.40
2014,07,17,00,32,20.50
2014,07,17,00,33,20.50
2014,07,17,00,34,20.50
2014,07,17,00,35,20.40
2014,07,17,00,36,20.40
2014,07,17,00,37,20.40
2014,07,17,00,38,20.40
2014,07,17,00,39,20.40
2014,07,17,00,40,20.40
2014,07,17,00,41,20.40
2014,07,17,00,42,20.40
2014,07,17,00,43,20.40
2014,07,17,00,44,20.40
2014,07,17,00,45,20.40
2014,07,17,00,46,20.30
2014,07,17,00,47,20.30
2014,07,17,00,48,20.30
2014,07,17,00,49,20.40
2014,07,17,00,50,20.40
2014,07,17,00,51,20.40
2014,07,17,00,52,20.40
2014,07,17,00,53,20.40
2014,07,17,00,54,20.40
2014,07,17,00,55,20.40
2014,07,17,00,56,20.30
2014,07,17,00,57,20.30
2014,07,17,00,58,20.20
2014,07,17,00,59,20.20
2014,07,17,01,00,20.20
2014,07,17,01,01,20.20
2014,07,17,01,02,20.20
2014,07,17,01,03,20.30
2014,07,17,01,04,20.20
2014,07,17,01,05,20.20
2014,07,17,01,06,20.20
2014,07,17,01,07,20.20
2014,07,17,01,08,20.20
2014,07,17,01,09,20.20
2014,07,17,01,10,20.10
2014,07,17,01,11,20.10
2014,07,17,01,12,20.10
2014,07,17,01,13,20.10
2014,07,17,01,14,20.10
2014,07,17,01,15,20.10
2014,07,17,01,16,20.10
2014,07,17,01,17,20.00
2014,07,17,01,18,20.00
2014,07,17,01,19,20.00
2014,07,17,01,20,20.00
2014,07,17,01,21,20.00
2014,07,17,01,22,20.00
2014,07,17,01,23,20.00
2014,07,17,01,24,20.00
2014,07,17,01,25,20.00
2014,07,17,01,26,20.00
2014,07,17,01,27,20.00
2014,07,17,01,28,19.90
2014,07,17,01,29,19.90
2014,07,17,01,30,19.90
2014,07,17,01,31,20.00
2014,07,17,01,32,20.00
2014,07,17,01,33,20.00
2014,07,17,01,34,20.10
2014,07,17,01,35,20.10
2014,07,17,01,36,20.10
2014,07,17,01,37,20.10
2014,07,17,01,38,20.10
2014,07,17,01,39,20.10
2014,07,17,01,40,20.10
2014,07,17,01,41,20.00
2014,07,17,01,42,20.00
2014,07,17,01,43,19.90
2014,07,17,01,44,19.90
2014,07,17,01,45,19.90
2014,07,17,01,46,19.90
2014,07,17,01,47,19.90
2014,07,17,01,48,19.90
2014,07,17,01,49,19.90
2014,07,17,01,50,19.90
2014,07,17,01,51,20.00
2014,07,17,01,52,20.00
2014,07,17,01,53,20.00
2014,07,17,01,54,20.00
2014,07,17,01,55,20.00
2014,07,17,01,56,20.00
2014,07,17,01,57,20.00
2014,07,17,01,58,20.00
2014,07,17,01,59,19.90
2014,07,17,02,00,20.00
2014,07,17,02,01,20.00
2014,07,17,02,02,20.00
2014,07,17,02,03,20.00
2014,07,17,02,04,20.00
2014,07,17,02,05,20.00
2014,07,17,02,06,20.00
2014,07,17,02,07,20.00
2014,07,17,02,08,20.00
2014,07,17,02,09,20.00
2014,07,17,02,10,20.00
2014,07,17,02,11,20.10
2014,07,17,02,12,20.10
2014,07,17,02,13,20.10
2014,07,17,02,14,20.10
2014,07,17,02,15,20.20
2014,07,17,02,16,20.20
2014,07,17,02,17,20.20
2014,07,17,02,18,20.20
2014,07,17,02,19,20.10
2014,07,17,02,20,20.10
2014,07,17,02,21,20.10
2014,07,17,02,22,20.10
2014,07,17,02,23,20.10
2014,07,17,02,24,20.10
2014,07,17,02,25,20.10
2014,07,17,02,26,20.10
2014,07,17,02,27,20.10
2014,07,17,02,28,20.00
2014,07,17,02,29,20.00
2014,07,17,02,30,19.90
2014,07,17,02,31,19.90
2014,07,17,02,32,19.90
2014,07,17,02,33,19.90
2014,07,17,02,34,19.90
2014,07,17,02,35,19.90
2014,07,17,02,36,19.90
2014,07,17,02,37,19.90
2014,07,17,02,38,19.90
2014,07,17,02,39,19.90
2014,07,17,02,40,19.90
2014,07,17,02,41,19.90
2014,07,17,02,42,19.90
2014,07,17,02,43,19.90
2014,07,17,02,44,19.90
2014,07,17,02,45,19.90
2014,07,17,02,46,19.90
2014,07,17,02,47,19.90
2014,07,17,02,48,19.80
2014,07,17,02,49,19.80
2014,07,17,02,50,19.80
2014,07,17,02,51,19.80
2014,07,17,02,52,19.80
2014,07,17,02,53,19.80
2014,07,17,02,54,19.80
2014,07,17,02,55,19.80
2014,07,17,02,56,19.80
2014,07,17,02,57,19.80
2014,07,17,02,58,19.80
2014,07,17,02,59,19.80
2014,07,17,03,00,19.70
2014,07,17,03,01,19.70
2014,07,17,03,02,19.70
2014,07,17,03,03,19.70
2014,07,17,03,04,19.70
2014,07,17,03,05,19.70
2014,07,17,03,06,19.70
2014,07,17,03,07,19.70
2014,07,17,03,08,19.70
2014,07,17,03,09,19.70
2014,07,17,03,10,19.80
2014,07,17,03,11,19.80
2014,07,17,03,12,19.80
2014,07,17,03,13,19.70
2014,07,17,03,14,19.70
2014,07,17,03,15,19.70
2014,07,17,03,16,19.70
2014,07,17,03,17,19.70
2014,07,17,03,18,19.60
2014,07,17,03,19,19.60
2014,07,17,03,20,19.60
2014,07,17,03,21,19.50
2014,07,17,03,22,19.50
2014,07,17,03,23,19.40
2014,07,17,03,24,19.40
2014,07,17,03,25,19.40
2014,07,17,03,26,19.30
2014,07,17,03,27,19.30
2014,07,17,03,28,19.20
2014,07,17,03,29,19.20
2014,07,17,03,30,19.10
2014,07,17,03,31,19.10
2014,07,17,03,32,19.10
2014,07,17,03,33,19.10
2014,07,17,03,34,19.20
2014,07,17,03,35,19.10
2014,07,17,03,36,19.20
2014,07,17,03,37,19.10
2014,07,17,03,38,19.10
2014,07,17,03,39,19.10
2014,07,17,03,40,19.10
2014,07,17,03,41,19.10
2014,07,17,03,42,19.10
2014,07,17,03,43,19.10
2014,07,17,03,44,19.00
2014,07,17,03,45,19.00
2014,07,17,03,46,19.00
2014,07,17,03,47,18.90
2014,07,17,03,48,18.90
2014,07,17,03,49,18.90
2014,07,17,03,50,18.90
2014,07,17,03,51,18.90
2014,07,17,03,52,18.80
2014,07,17,03,53,18.80
2014,07,17,03,54,18.80
2014,07,17,03,55,18.80
2014,07,17,03,56,18.80
2014,07,17,03,57,18.70
2014,07,17,03,58,18.70
2014,07,17,03,59,18.70
2014,07,17,04,00,18.60
2014,07,17,04,01,18.60
2014,07,17,04,02,18.60
2014,07,17,04,03,18.50
2014,07,17,04,04,18.50
2014,07,17,04,05,18.40
2014,07,17,04,06,18.50
2014,07,17,04,07,18.50
2014,07,17,04,08,18.60
2014,07,17,04,09,18.70
2014,07,17,04,10,18.80
2014,07,17,04,11,18.80
2014,07,17,04,12,18.80
2014,07,17,04,13,18.70
2014,07,17,04,14,18.70
2014,07,17,04,15,18.70
2014,07,17,04,16,18.60
2014,07,17,04,17,18.50
2014,07,17,04,18,18.40
2014,07,17,04,19,18.30
2014,07,17,04,20,18.20
2014,07,17,04,21,18.10
2014,07,17,04,22,18.00
2014,07,17,04,23,18.00
2014,07,17,04,24,17.90
2014,07,17,04,25,17.80
2014,07,17,04,26,17.80
2014,07,17,04,27,17.70
2014,07,17,04,28,17.70
2014,07,17,04,29,17.60
2014,07,17,04,30,17.50
2014,07,17,04,31,17.50
2014,07,17,04,32,17.40
2014,07,17,04,33,17.30
2014,07,17,04,34,17.30
2014,07,17,04,35,17.20
2014,07,17,04,36,17.20
2014,07,17,04,37,17.10
2014,07,17,04,38,17.00
2014,07,17,04,39,16.90
2014,07,17,04,40,16.80
2014,07,17,04,41,16.80
2014,07,17,04,42,16.70
2014,07,17,04,43,16.60
2014,07,17,04,44,16.50
2014,07,17,04,45,16.40
2014,07,17,04,46,16.40
2014,07,17,04,47,16.30
2014,07,17,04,48,16.20
2014,07,17,04,49,16.10
2014,07,17,04,50,16.10
2014,07,17,04,51,16.10
2014,07,17,04,52,16.10
2014,07,17,04,53,16.00
2014,07,17,04,54,15.90
2014,07,17,04,55,15.90
2014,07,17,04,56,15.80
2014,07,17,04,57,15.80
2014,07,17,04,58,15.70
2014,07,17,04,59,15.70
2014,07,17,05,00,15.60
2014,07,17,05,01,15.60
2014,07,17,05,02,15.50
2014,07,17,05,03,15.50
2014,07,17,05,04,15.40
2014,07,17,05,05,15.40
2014,07,17,05,06,15.30
2014,07,17,05,07,15.30
2014,07,17,05,08,15.30
2014,07,17,05,09,15.30
2014,07,17,05,10,15.30
2014,07,17,05,11,15.20
2014,07,17,05,12,15.20
2014,07,17,05,13,15.20
2014,07,17,05,14,15.20
2014,07,17,05,15,15.20
2014,07,17,05,16,15.20
2014,07,17,05,17,15.20
2014,07,17,05,18,15.10
2014,07,17,05,19,15.10
2014,07,17,05,20,15.10
2014,07,17,05,21,15.10
2014,07,17,05,22,15.00
2014,07,17,05,23,15.00
2014,07,17,05,24,15.00
2014,07,17,05,25,14.90
2014,07,17,05,26,14.90
2014,07,17,05,27,14.80
2014,07,17,05,28,14.80
2014,07,17,05,29,14.80
2014,07,17,05,30,14.70
2014,07,17,05,31,14.60
2014,07,17,05,32,14.50
2014,07,17,05,33,14.50
2014,07,17,05,34,14.40
2014,07,17,05,35,14.30
2014,07,17,05,36,14.30
2014,07,17,05,37,14.20
2014,07,17,05,38,14.20
2014,07,17,05,39,14.10
2014,07,17,05,40,14.10
2014,07,17,05,41,14.10
2014,07,17,05,42,14.00
2014,07,17,05,43,14.00
2014,07,17,05,44,14.00
2014,07,17,05,45,13.90
2014,07,17,05,46,13.90
2014,07,17,05,47,13.80
2014,07,17,05,48,13.80
2014,07,17,05,49,13.80
2014,07,17,05,50,13.80
2014,07,17,05,51,13.80
2014,07,17,05,52,13.80
2014,07,17,05,53,13.80
2014,07,17,05,54,13.80
2014,07,17,05,55,13.80
2014,07,17,05,56,13.80
2014,07,17,05,57,13.70
2014,07,17,05,58,13.70
2014,07,17,05,59,13.70
2014,07,17,06,00,13.70
2014,07,17,06,01,13.70
2014,07,17,06,02,13.60
2014,07,17,06,03,13.60
2014,07,17,06,04,13.60
2014,07,17,06,05,13.60
2014,07,17,06,06,13.60
2014,07,17,06,07,13.50
2014,07,17,06,08,13.50
2014,07,17,06,09,13.50
2014,07,17,06,10,13.50
2014,07,17,06,11,13.50
2014,07,17,06,12,13.40
2014,07,17,06,13,13.40
2014,07,17,06,14,13.40
2014,07,17,06,15,13.40
2014,07,17,06,16,13.40
2014,07,17,06,17,13.40
2014,07,17,06,18,13.40
2014,07,17,06,19,13.40
2014,07,17,06,20,13.30
2014,07,17,06,21,13.40
2014,07,17,06,22,13.40
2014,07,17,06,23,13.40
2014,07,17,06,24,13.40
2014,07,17,06,25,13.40
2014,07,17,06,26,13.30
2014,07,17,06,27,13.30
2014,07,17,06,28,13.30
2014,07,17,06,29,13.30
2014,07,17,06,30,13.30
2014,07,17,06,31,13.30
2014,07,17,06,32,13.40
2014,07,17,06,33,13.40
2014,07,17,06,34,13.40
2014,07,17,06,35,13.40
2014,07,17,06,36,13.50
2014,07,17,06,37,13.50
2014,07,17,06,38,13.50
2014,07,17,06,39,13.50
2014,07,17,06,40,13.50
2014,07,17,06,41,13.60
2014,07,17,06,42,13.60
2014,07,17,06,43,13.60
2014,07,17,06,44,13.60
2014,07,17,06,45,13.60
2014,07,17,06,46,13.60
2014,07,17,06,47,13.60
2014,07,17,06,48,13.60
2014,07,17,06,49,13.60
2014,07,17,06,50,13.60
2014,07,17,06,51,13.60
2014,07,17,06,52,13.70
2014,07,17,06,53,13.70
2014,07,17,06,54,13.80
2014,07,17,06,55,13.80
2014,07,17,06,56,13.80
2014,07,17,06,57,13.90
2014,07,17,06,58,13.90
2014,07,17,06,59,13.90
2014,07,17,07,00,13.90
2014,07,17,07,01,13.90
2014,07,17,07,02,13.90
2014,07,17,07,03,13.90
2014,07,17,07,04,13.90
2014,07,17,07,05,13.90
2014,07,17,07,06,13.90
2014,07,17,07,07,13.90
2014,07,17,07,08,13.90
2014,07,17,07,09,13.90
2014,07,17,07,10,13.90
2014,07,17,07,11,13.80
2014,07,17,07,12,13.80
2014,07,17,07,13,13.80
2014,07,17,07,14,13.80
2014,07,17,07,15,13.90
2014,07,17,07,16,13.90
2014,07,17,07,17,13.90
2014,07,17,07,18,14.00
2014,07,17,07,19,14.00
2014,07,17,07,20,14.10
2014,07,17,07,21,14.10
2014,07,17,07,22,14.20
2014,07,17,07,23,14.20
2014,07,17,07,24,14.20
2014,07,17,07,25,14.30
2014,07,17,07,26,14.30
2014,07,17,07,27,14.30
2014,07,17,07,28,14.30
2014,07,17,07,29,14.40
2014,07,17,07,30,14.40
2014,07,17,07,31,14.40
2014,07,17,07,32,14.40
2014,07,17,07,33,14.40
2014,07,17,07,34,14.40
2014,07,17,07,35,14.40
2014,07,17,07,36,14.40
2014,07,17,07,37,14.40
2014,07,17,07,38,14.40
2014,07,17,07,39,14.40
2014,07,17,07,40,14.40
2014,07,17,07,41,14.40
2014,07,17,07,42,14.40
2014,07,17,07,43,14.40
2014,07,17,07,44,14.30
2014,07,17,07,45,14.30
2014,07,17,07,46,14.30
2014,07,17,07,47,14.30
2014,07,17,07,48,14.30
2014,07,17,07,49,14.30
2014,07,17,07,50,14.40
2014,07,17,07,51,14.50
2014,07,17,07,52,14.60
2014,07,17,07,53,14.60
2014,07,17,07,54,14.50
2014,07,17,07,55,14.50
2014,07,17,07,56,14.40
2014,07,17,07,57,14.40
2014,07,17,07,58,14.40
2014,07,17,07,59,14.40
2014,07,17,08,00,14.40
2014,07,17,08,01,14.50
2014,07,17,08,02,14.50
2014,07,17,08,03,14.60
2014,07,17,08,04,14.70
2014,07,17,08,05,14.80
2014,07,17,08,06,14.80
2014,07,17,08,07,14.80
2014,07,17,08,08,14.90
2014,07,17,08,09,14.90
2014,07,17,08,10,14.90
2014,07,17,08,11,14.90
2014,07,17,08,12,14.90
2014,07,17,08,13,14.90
2014,07,17,08,14,14.90
2014,07,17,08,15,14.80
2014,07,17,08,16,14.90
2014,07,17,08,17,14.90
2014,07,17,08,18,14.90
2014,07,17,08,19,14.90
2014,07,17,08,20,14.90
2014,07,17,08,21,15.00
2014,07,17,08,22,15.00
2014,07,17,08,23,15.10
2014,07,17,08,24,15.20
2014,07,17,08,25,15.30
2014,07,17,08,26,15.30
2014,07,17,08,27,15.40
2014,07,17,08,28,15.40
2014,07,17,08,29,15.40
2014,07,17,08,30,15.30
2014,07,17,08,31,15.30
2014,07,17,08,32,15.30
2014,07,17,08,33,15.30
2014,07,17,08,34,15.30
2014,07,17,08,35,15.40
2014,07,17,08,36,15.40
2014,07,17,08,37,15.50
2014,07,17,08,38,15.70
2014,07,17,08,39,15.90
2014,07,17,08,40,16.20
2014,07,17,08,41,16.40
2014,07,17,08,42,16.60
2014,07,17,08,43,16.70
2014,07,17,08,44,16.80
2014,07,17,08,45,16.90
2014,07,17,08,46,17.00
2014,07,17,08,47,17.10
2014,07,17,08,48,17.20
2014,07,17,08,49,17.40
2014,07,17,08,50,17.50
2014,07,17,08,51,17.50
2014,07,17,08,52,17.60
2014,07,17,08,53,17.70
2014,07,17,08,54,17.80
2014,07,17,08,55,17.80
2014,07,17,08,56,17.90
2014,07,17,08,57,17.90
2014,07,17,08,58,18.00
2014,07,17,08,59,18.00
2014,07,17,09,00,18.00
2014,07,17,09,01,18.10
2014,07,17,09,02,18.20
2014,07,17,09,03,18.30
2014,07,17,09,04,18.30
2014,07,17,09,05,18.30
2014,07,17,09,06,18.30
2014,07,17,09,07,18.30
2014,07,17,09,08,18.30
2014,07,17,09,09,18.30
2014,07,17,09,10,18.30
2014,07,17,09,11,18.40
2014,07,17,09,12,18.40
2014,07,17,09,13,18.40
2014,07,17,09,14,18.50
2014,07,17,09,15,18.50
2014,07,17,09,16,18.60
2014,07,17,09,17,18.70
2014,07,17,09,18,18.80
2014,07,17,09,19,18.80
2014,07,17,09,20,18.80
2014,07,17,09,21,18.80
2014,07,17,09,22,18.70
2014,07,17,09,23,18.70
2014,07,17,09,24,18.70
2014,07,17,09,25,18.70
2014,07,17,09,26,18.70
2014,07,17,09,27,18.70
2014,07,17,09,28,18.70
2014,07,17,09,29,18.70
2014,07,17,09,30,18.70
2014,07,17,09,31,18.70
2014,07,17,09,32,18.60
2014,07,17,09,33,18.60
2014,07,17,09,34,18.60
2014,07,17,09,35,18.60
2014,07,17,09,36,18.70
2014,07,17,09,37,18.70
2014,07,17,09,38,18.80
2014,07,17,09,39,18.80
2014,07,17,09,40,18.80
2014,07,17,09,41,18.90
2014,07,17,09,42,19.00
2014,07,17,09,43,19.00
2014,07,17,09,44,19.10
2014,07,17,09,45,19.10
2014,07,17,09,46,19.10
2014,07,17,09,47,19.20
2014,07,17,09,48,19.20
2014,07,17,09,49,19.30
2014,07,17,09,50,19.30
2014,07,17,09,51,19.40
2014,07,17,09,52,19.50
2014,07,17,09,53,19.50
2014,07,17,09,54,19.60
2014,07,17,09,55,19.60
2014,07,17,09,56,19.60
2014,07,17,09,57,19.70
2014,07,17,09,58,19.70
2014,07,17,09,59,19.80
2014,07,17,10,00,19.80
2014,07,17,10,01,19.80
2014,07,17,10,02,19.80
2014,07,17,10,03,19.80
2014,07,17,10,04,19.80
2014,07,17,10,05,19.90
2014,07,17,10,06,20.00
2014,07,17,10,07,20.20
2014,07,17,10,08,20.30
2014,07,17,10,09,20.40
2014,07,17,10,10,20.50
2014,07,17,10,11,20.60
2014,07,17,10,12,20.70
2014,07,17,10,13,20.80
2014,07,17,10,14,20.80
2014,07,17,10,15,20.90
2014,07,17,10,16,20.90
2014,07,17,10,17,20.90
2014,07,17,10,18,20.80
2014,07,17,10,19,20.80
2014,07,17,10,20,20.80
2014,07,17,10,21,20.70
2014,07,17,10,22,20.70
2014,07,17,10,23,20.60
2014,07,17,10,24,20.60
2014,07,17,10,25,20.50
2014,07,17,10,26,20.50
2014,07,17,10,27,20.40
2014,07,17,10,28,20.40
2014,07,17,10,29,20.40
2014,07,17,10,30,20.40
2014,07,17,10,31,20.40
2014,07,17,10,32,20.40
2014,07,17,10,33,20.40
2014,07,17,10,34,20.50
2014,07,17,10,35,20.50
2014,07,17,10,36,20.50
2014,07,17,10,37,20.50
2014,07,17,10,38,20.50
2014,07,17,10,39,20.60
2014,07,17,10,40,20.70
2014,07,17,10,41,20.70
2014,07,17,10,42,20.70
2014,07,17,10,43,20.80
2014,07,17,10,44,20.70
2014,07,17,10,45,20.70
2014,07,17,10,46,20.70
2014,07,17,10,47,20.70
2014,07,17,10,48,20.70
2014,07,17,10,49,20.70
2014,07,17,10,50,20.80
2014,07,17,10,51,20.80
2014,07,17,10,52,20.80
2014,07,17,10,53,20.80
2014,07,17,10,54,20.90
2014,07,17,10,55,21.00
2014,07,17,10,56,21.00
2014,07,17,10,57,21.10
2014,07,17,10,58,21.30
2014,07,17,10,59,21.40
2014,07,17,11,00,21.50
2014,07,17,11,01,21.60
2014,07,17,11,02,21.60
2014,07,17,11,03,21.70
2014,07,17,11,04,21.80
2014,07,17,11,05,21.80
2014,07,17,11,06,21.90
2014,07,17,11,07,21.90
2014,07,17,11,08,22.00
2014,07,17,11,09,22.20
2014,07,17,11,10,22.30
2014,07,17,11,11,22.40
2014,07,17,11,12,22.50
2014,07,17,11,13,22.60
2014,07,17,11,14,22.60
2014,07,17,11,15,22.70
2014,07,17,11,16,22.70
2014,07,17,11,17,22.80
2014,07,17,11,18,22.80
2014,07,17,11,19,22.90
2014,07,17,11,20,22.90
2014,07,17,11,21,23.00
2014,07,17,11,22,23.00
2014,07,17,11,23,23.00
2014,07,17,11,24,23.00
2014,07,17,11,25,22.90
2014,07,17,11,26,22.90
2014,07,17,11,27,23.00
2014,07,17,11,28,23.00
2014,07,17,11,29,23.10
2014,07,17,11,30,23.10
2014,07,17,11,31,23.10
2014,07,17,11,32,23.20
2014,07,17,11,33,23.20
2014,07,17,11,34,23.30
2014,07,17,11,35,23.30
2014,07,17,11,36,23.20
2014,07,17,11,37,23.10
2014,07,17,11,38,23.00
2014,07,17,11,39,23.00
2014,07,17,11,40,23.00
2014,07,17,11,41,22.90
2014,07,17,11,42,22.80
2014,07,17,11,43,22.80
2014,07,17,11,44,22.70
2014,07,17,11,45,22.70
2014,07,17,11,46,22.70
2014,07,17,11,47,22.80
2014,07,17,11,48,22.80
2014,07,17,11,49,22.80
2014,07,17,11,50,22.80
2014,07,17,11,51,22.80
2014,07,17,11,52,22.80
2014,07,17,11,53,22.70
2014,07,17,11,54,22.70
2014,07,17,11,55,22.70
2014,07,17,11,56,22.80
2014,07,17,11,57,22.70
2014,07,17,11,58,22.60
2014,07,17,11,59,22.60
2014,07,17,12,00,22.60
2014,07,17,12,01,22.70
2014,07,17,12,02,22.70
2014,07,17,12,03,22.80
2014,07,17,12,04,22.90
2014,07,17,12,05,23.00
2014,07,17,12,06,23.00
2014,07,17,12,07,23.00
2014,07,17,12,08,22.90
2014,07,17,12,09,22.80
2014,07,17,12,10,22.70
2014,07,17,12,11,22.60
2014,07,17,12,12,22.60
2014,07,17,12,13,22.50
2014,07,17,12,14,22.50
2014,07,17,12,15,22.60
2014,07,17,12,16,22.70
2014,07,17,12,17,22.70
2014,07,17,12,18,22.60
2014,07,17,12,19,22.40
2014,07,17,12,20,22.20
2014,07,17,12,21,22.00
2014,07,17,12,22,21.90
2014,07,17,12,23,21.80
2014,07,17,12,24,21.80
2014,07,17,12,25,21.80
2014,07,17,12,26,21.80
2014,07,17,12,27,21.80
2014,07,17,12,28,21.80
2014,07,17,12,29,21.80
2014,07,17,12,30,21.80
2014,07,17,12,31,21.80
2014,07,17,12,32,21.80
2014,07,17,12,33,21.80
2014,07,17,12,34,21.70
2014,07,17,12,35,21.70
2014,07,17,12,36,21.70
2014,07,17,12,37,21.90
2014,07,17,12,38,22.00
2014,07,17,12,39,22.10
2014,07,17,12,40,22.10
2014,07,17,12,41,22.00
2014,07,17,12,42,21.90
2014,07,17,12,43,21.80
2014,07,17,12,44,21.70
2014,07,17,12,45,21.70
2014,07,17,12,46,21.80
2014,07,17,12,47,21.90
2014,07,17,12,48,22.00
2014,07,17,12,49,22.00
2014,07,17,12,50,22.10
2014,07,17,12,51,22.10
2014,07,17,12,52,22.10
2014,07,17,12,53,22.10
2014,07,17,12,54,22.10
2014,07,17,12,55,22.00
2014,07,17,12,56,22.00
2014,07,17,12,57,21.90
2014,07,17,12,58,21.90
2014,07,17,12,59,21.80
2014,07,17,13,00,21.90
2014,07,17,13,01,21.90
2014,07,17,13,02,22.00
2014,07,17,13,03,22.00
2014,07,17,13,04,22.10
2014,07,17,13,05,22.20
2014,07,17,13,06,22.30
2014,07,17,13,07,22.40
2014,07,17,13,08,22.50
2014,07,17,13,09,22.50
2014,07,17,13,10,22.60
2014,07,17,13,11,22.60
2014,07,17,13,12,22.60
2014,07,17,13,13,22.60
2014,07,17,13,14,22.50
2014,07,17,13,15,22.50
2014,07,17,13,16,22.50
2014,07,17,13,17,22.60
2014,07,17,13,18,22.60
2014,07,17,13,19,22.60
2014,07,17,13,20,22.70
2014,07,17,13,21,22.80
2014,07,17,13,22,22.90
2014,07,17,13,23,23.00
2014,07,17,13,24,22.90
2014,07,17,13,25,22.80
2014,07,17,13,26,22.80
2014,07,17,13,27,22.80
2014,07,17,13,28,22.80
2014,07,17,13,29,22.80
2014,07,17,13,30,22.80
2014,07,17,13,31,22.80
2014,07,17,13,32,22.90
2014,07,17,13,33,22.90
2014,07,17,13,34,23.00
2014,07,17,13,35,23.00
2014,07,17,13,36,23.10
2014,07,17,13,37,23.00
2014,07,17,13,38,23.00
2014,07,17,13,39,23.00
2014,07,17,13,40,23.10
2014,07,17,13,41,23.20
2014,07,17,13,42,23.20
2014,07,17,13,43,23.30
2014,07,17,13,44,23.40
2014,07,17,13,45,23.40
2014,07,17,13,46,23.50
2014,07,17,13,47,23.60
2014,07,17,13,48,23.70
2014,07,17,13,49,23.80
2014,07,17,13,50,23.90
2014,07,17,13,51,24.00
2014,07,17,13,52,24.00
2014,07,17,13,53,23.90
2014,07,17,13,54,23.80
2014,07,17,13,55,23.80
2014,07,17,13,56,23.80
2014,07,17,13,57,23.70
2014,07,17,13,58,23.70
2014,07,17,13,59,23.70
2014,07,17,14,00,23.60
2014,07,17,14,01,23.40
2014,07,17,14,02,23.20
2014,07,17,14,03,23.10
2014,07,17,14,04,23.00
2014,07,17,14,05,22.90
2014,07,17,14,06,22.90
2014,07,17,14,07,23.00
2014,07,17,14,08,23.00
2014,07,17,14,09,22.90
2014,07,17,14,10,22.90
2014,07,17,14,11,22.90
2014,07,17,14,12,22.90
2014,07,17,14,13,23.00
2014,07,17,14,14,23.10
2014,07,17,14,15,23.30
2014,07,17,14,16,23.40
2014,07,17,14,17,23.40
2014,07,17,14,18,23.50
2014,07,17,14,19,23.50
2014,07,17,14,20,23.50
2014,07,17,14,21,23.50
2014,07,17,14,22,23.50
2014,07,17,14,23,23.40
2014,07,17,14,24,23.40
2014,07,17,14,25,23.40
2014,07,17,14,26,23.50
2014,07,17,14,27,23.50
2014,07,17,14,28,23.50
2014,07,17,14,29,23.40
2014,07,17,14,30,23.30
2014,07,17,14,31,23.20
2014,07,17,14,32,23.20
2014,07,17,14,33,23.10
2014,07,17,14,34,23.10
2014,07,17,14,35,23.00
2014,07,17,14,36,23.00
2014,07,17,14,37,23.10
2014,07,17,14,38,23.10
2014,07,17,14,39,23.20
2014,07,17,14,40,23.20
2014,07,17,14,41,23.20
2014,07,17,14,42,23.30
2014,07,17,14,43,23.30
2014,07,17,14,44,23.40
2014,07,17,14,45,23.40
2014,07,17,14,46,23.40
2014,07,17,14,47,23.30
2014,07,17,14,48,23.20
2014,07,17,14,49,23.10
2014,07,17,14,50,23.00
2014,07,17,14,51,22.80
2014,07,17,14,52,22.80
2014,07,17,14,53,22.70
2014,07,17,14,54,22.70
2014,07,17,14,55,22.70
2014,07,17,14,56,22.70
2014,07,17,14,57,22.80
2014,07,17,14,58,22.80
2014,07,17,14,59,22.80
2014,07,17,15,00,22.80
2014,07,17,15,01,22.80
2014,07,17,15,02,22.80
2014,07,17,15,03,22.80
2014,07,17,15,04,22.80
2014,07,17,15,05,22.80
2014,07,17,15,06,22.80
2014,07,17,15,07,22.80
2014,07,17,15,08,22.80
2014,07,17,15,09,22.80
2014,07,17,15,10,22.80
2014,07,17,15,11,22.80
2014,07,17,15,12,23.00
2014,07,17,15,13,23.00
2014,07,17,15,14,22.90
2014,07,17,15,15,22.80
2014,07,17,15,16,22.80
2014,07,17,15,17,22.70
2014,07,17,15,18,22.70
2014,07,17,15,19,22.70
2014,07,17,15,20,22.80
2014,07,17,15,21,22.90
2014,07,17,15,22,23.00
2014,07,17,15,23,23.10
2014,07,17,15,24,23.10
2014,07,17,15,25,23.20
2014,07,17,15,26,23.20
2014,07,17,15,27,23.10
2014,07,17,15,28,23.00
2014,07,17,15,29,23.00
2014,07,17,15,30,23.00
2014,07,17,15,31,23.10
2014,07,17,15,32,23.20
2014,07,17,15,33,23.30
2014,07,17,15,34,23.40
2014,07,17,15,35,23.50
2014,07,17,15,36,23.50
2014,07,17,15,37,23.40
2014,07,17,15,38,23.40
2014,07,17,15,39,23.40
2014,07,17,15,40,23.30
2014,07,17,15,41,23.30
2014,07,17,15,42,23.30
2014,07,17,15,43,23.30
2014,07,17,15,44,23.30
2014,07,17,15,45,23.30
2014,07,17,15,46,23.40
2014,07,17,15,47,23.30
2014,07,17,15,48,23.20
2014,07,17,15,49,23.10
2014,07,17,15,50,22.90
2014,07,17,15,51,22.80
2014,07,17,15,52,22.80
2014,07,17,15,53,22.80
2014,07,17,15,54,22.80
2014,07,17,15,55,22.70
2014,07,17,15,56,22.60
2014,07,17,15,57,22.60
2014,07,17,15,58,22.50
2014,07,17,15,59,22.60
2014,07,17,16,00,22.60
2014,07,17,16,01,22.50
2014,07,17,16,02,22.50
2014,07,17,16,03,22.40
2014,07,17,16,04,22.50
2014,07,17,16,05,22.60
2014,07,17,16,06,22.60
2014,07,17,16,07,22.60
2014,07,17,16,08,22.50
2014,07,17,16,09,22.50
2014,07,17,16,10,22.50
2014,07,17,16,11,22.60
2014,07,17,16,12,22.70
2014,07,17,16,13,22.90
2014,07,17,16,14,22.90
2014,07,17,16,15,22.90
2014,07,17,16,16,22.90
2014,07,17,16,17,22.90
2014,07,17,16,18,22.80
2014,07,17,16,19,22.80
2014,07,17,16,20,22.80
2014,07,17,16,21,22.80
2014,07,17,16,22,22.80
2014,07,17,16,23,22.80
2014,07,17,16,24,22.80
2014,07,17,16,25,22.70
2014,07,17,16,26,22.60
2014,07,17,16,27,22.50
2014,07,17,16,28,22.40
2014,07,17,16,29,22.40
2014,07,17,16,30,22.30
2014,07,17,16,31,22.30
2014,07,17,16,32,22.30
2014,07,17,16,33,22.30
2014,07,17,16,34,22.30
2014,07,17,16,35,22.40
2014,07,17,16,36,22.40
2014,07,17,16,37,22.40
2014,07,17,16,38,22.40
2014,07,17,16,39,22.40
2014,07,17,16,40,22.40
2014,07,17,16,41,22.40
2014,07,17,16,42,22.40
2014,07,17,16,43,22.40
2014,07,17,16,44,22.40
2014,07,17,16,45,22.40
2014,07,17,16,46,22.30
2014,07,17,16,47,22.30
2014,07,17,16,48,22.30
2014,07,17,16,49,22.20
2014,07,17,16,50,22.20
2014,07,17,16,51,22.20
2014,07,17,16,52,22.20
2014,07,17,16,53,22.20
2014,07,17,16,54,22.20
2014,07,17,16,55,22.20
2014,07,17,16,56,22.20
2014,07,17,16,57,22.20
2014,07,17,16,58,22.20
2014,07,17,16,59,22.20
2014,07,17,17,00,22.20
2014,07,17,17,01,22.20
2014,07,17,17,02,22.10
2014,07,17,17,03,22.10
2014,07,17,17,04,22.10
2014,07,17,17,05,22.10
2014,07,17,17,06,22.10
2014,07,17,17,07,22.10
2014,07,17,17,08,22.00
2014,07,17,17,09,22.00
2014,07,17,17,10,22.00
2014,07,17,17,11,21.90
2014,07,17,17,12,21.80
2014,07,17,17,13,21.70
2014,07,17,17,14,21.60
2014,07,17,17,15,21.60
2014,07,17,17,16,21.60
2014,07,17,17,17,21.60
2014,07,17,17,18,21.60
2014,07,17,17,19,21.70